Fairbanks, AK

5:21 AM AKST on December 03, 2016 (GMT -0900)
Fairbanks International

Weather History for PAFA - October, 2012

Change the Weather History Date:

Saturday, October 13, 2012

  Actual Average Record
Temperature  
Mean Temperature 26 °F 27 °F  
Max Temperature 31 °F 35 °F 65 °F (1969)
Min Temperature 20 °F 19 °F -3 °F (1913)
Degree Days  
Heating Degree Days 39 38  
Month to date heating degree days 389 431  
Since 1 July heating degree days 1363 1425  
Cooling Degree Days 0 0  
Month to date cooling degree days 0 0  
Year to date cooling degree days 34 61  
Moisture  
Dew Point 11 °F    
Average Humidity 54    
Maximum Humidity 68    
Minimum Humidity 31    
Precipitation  
Precipitation T in 0.03 in 0.27 in (1965)
Month to date precipitation 0.92 0.37  
Year to date precipitation 8.68 9.04  
Snow  
Snow T in 0.40 in 4.60 in (1965)
Month to date snowfall T 3.5  
Since 1 July snowfall T 5.3  
Since 1 September snowfall T 5.3  
Snow Depth T in    
Sea Level Pressure  
Sea Level Pressure 29.46 in    
Wind  
Wind Speed 11 mph (NNE)    
Max Wind Speed 20 mph    
Max Gust Speed -    
Visibility 10 miles    
Events Snow    
T = Trace of Precipitation, MM = Missing Value Source: NWS Daily Summary

Daily Weather History Graph

Daily Weather History Graph

Search for Another Location

Airport or City:

Trip Planner

Search our weather history database for the weather conditions in past years. The results will help you decide how hot, cold, wet, or windy it might be!

Date:

Astronomy

Oct. 13, 2012 Rise Set
Actual Time 8:39 AM AKDT 6:33 PM AKDT
Civil Twilight 7:49 AM AKDT 7:23 PM AKDT
Nautical Twilight 6:53 AM AKDT 8:19 PM AKDT
Astronomical Twilight 5:55 AM AKDT 9:17 PM AKDT
Moon 6:12 AM AKDT (10/13) 5:39 PM AKDT (10/13)
Length of Visible Light 11h 33m
Length of Day
9h 54m
Waning Crescent, 4% of the Moon is Illuminated
Oct 13
Waning Crescent
Oct 15
New
Oct 21
First Quarter
Oct 29
Full
Nov 6
Last Quarter

Hourly Weather History & Observations

Time (AKDT) Temp. Windchill Dew Point Humidity Pressure Visibility Wind Dir Wind Speed Gust Speed Precip Events Conditions
12:53 AM 24.8 °F 14.0 °F 12.2 °F 59% 29.46 in 10.0 mi NNE 11.5 mph - N/A   Mostly Cloudy
1:53 AM 26.1 °F 17.6 °F 12.9 °F 58% 29.49 in 10.0 mi NNE 8.1 mph - N/A   Mostly Cloudy
2:53 AM 27.0 °F 16.7 °F 14.0 °F 58% 29.48 in 10.0 mi NNE 11.5 mph - N/A   Overcast
4:53 AM 21.9 °F 9.8 °F 12.0 °F 66% 29.48 in 10.0 mi NNE 12.7 mph - N/A   Scattered Clouds
5:53 AM 21.2 °F 9.5 °F 12.2 °F 68% 29.44 in 10.0 mi NNE 11.5 mph - N/A   Scattered Clouds
6:53 AM 21.0 °F 9.3 °F 12.0 °F 68% 29.47 in 10.0 mi NNE 11.5 mph - N/A   Scattered Clouds
7:53 AM 21.0 °F 9.9 °F 10.0 °F 63% 29.47 in 10.0 mi NNE 10.4 mph - N/A   Scattered Clouds
8:53 AM 21.0 °F 9.9 °F 10.0 °F 63% 29.48 in 10.0 mi NNE 10.4 mph - N/A   Scattered Clouds
9:53 AM 21.0 °F 11.4 °F 9.0 °F 60% 29.48 in 10.0 mi North 8.1 mph - N/A   Mostly Cloudy
10:53 AM 23.0 °F 13.1 °F 9.0 °F 55% 29.48 in 10.0 mi North 9.2 mph - N/A   Mostly Cloudy
11:53 AM 26.1 °F 17.6 °F 9.0 °F 49% 29.48 in 10.0 mi NNE 8.1 mph - N/A   Mostly Cloudy
12:53 PM 27.0 °F 16.1 °F 10.0 °F 49% 29.47 in 10.0 mi NE 12.7 mph - N/A   Mostly Cloudy
1:53 PM 28.0 °F 17.5 °F 10.0 °F 47% 29.46 in 10.0 mi NE 12.7 mph - N/A   Mostly Cloudy
2:53 PM 28.9 °F 19.2 °F 10.9 °F 47% 29.45 in 10.0 mi NNE 11.5 mph - N/A   Mostly Cloudy
3:53 PM 30.0 °F 21.1 °F 10.9 °F 45% 29.44 in 10.0 mi NNE 10.4 mph - N/A   Mostly Cloudy
4:53 PM 30.0 °F 20.5 °F 10.9 °F 45% 29.44 in 10.0 mi NNE 11.5 mph - N/A   Mostly Cloudy
5:53 PM 28.9 °F 21.1 °F 10.9 °F 47% 29.44 in 10.0 mi NE 8.1 mph - N/A   Mostly Cloudy
6:53 PM 27.0 °F 16.7 °F 10.9 °F 51% 29.44 in 10.0 mi NNE 11.5 mph - N/A   Mostly Cloudy
7:53 PM 26.1 °F 15.0 °F 10.9 °F 53% 29.44 in 10.0 mi NNE 12.7 mph - N/A   Mostly Cloudy
8:53 PM 24.1 °F 13.1 °F 9.0 °F 53% 29.44 in 10.0 mi North 11.5 mph - N/A   Overcast
9:53 PM 23.0 °F 12.4 °F 9.0 °F 55% 29.44 in 10.0 mi North 10.4 mph - 0.00 in Snow Light Snow
10:53 PM 23.0 °F 11.7 °F 10.9 °F 60% 29.44 in 10.0 mi North 11.5 mph - 0.00 in Snow Light Snow
11:53 PM 23.0 °F 12.4 °F 12.9 °F 65% 29.42 in 10.0 mi North 10.4 mph - 0.00 in Snow Light Snow